TIME,DELAY(SENSOR),PRES,OXYGEN,RAWTEMP,T(OPTODE),TCPHASE,FLUOR,BETA(BETA700),BETA(BETA412),BETA(BETA440),CDOM,C(CSC),ED(ED412.40),ED(ED444.00),ED(ED489.70),ED(ED554.30),LU(LU411.80),LU(LU443.40),LU(LU489.60),LU(LU554.10),COMP,TILTX,TILTY,CHECK
1378699233,5808,889.0300292968750000,46.9251899719238300,662.2448120117188000,4.5540409088134770,54.0048789978027340,52,101,81,79,78,15304,2147755858,2147423021,2148013010,2147870427,2147640118,2147056822,2148262509,2147201206,3051,4,13,53347
1378702829,5805,961.4799804687500000,49.8238182067871100,671.4597778320312000,4.2499618530273440,53.7099494934082000,52,100,84,78,79,15302,2147756900,2147422994,2148013641,2147872356,2147642340,2147058121,2148265920,2147199652,173,4,13,6100
1378706429,5806,971.7500000000000000,50.3106307983398440,671.8297729492188000,4.2377338409423830,53.6522407531738300,53,98,84,79,77,15302,2147756068,2147422866,2148009462,2147872338,2147639945,2147057581,2148267501,2147195657,426,4,13,42456
1378710029,5811,984.1400146484375000,49.8519515991210940,671.7648925781250000,4.2398781776428220,53.7103004455566400,53,98,84,80,79,15301,2147753408,2147421394,2148012754,2147872457,2147641188,2147061696,2148264950,2147199661,16,4,13,2171
1378713629,5808,987.6699829101562000,50.3567390441894500,673.3867187500000000,4.1862578392028810,53.6642684936523440,53,97,83,79,78,15305,2147753325,2147424749,2148013686,2147872182,2147641197,2147050761,2148265353,2147197632,126,4,13,49559
1378717229,5807,987.8699951171875000,49.6000099182128900,671.8021850585938000,4.2386460304260250,53.7479515075683600,52,100,86,79,79,15298,2147754651,2147424274,2148012150,2147872704,2147640722,2147054436,2148263954,2147203209,267,4,13,20701
1378720829,5808,990.2100219726562000,50.1174316406250000,673.1663818359375000,4.1935410499572750,53.6929206848144500,53,97,88,78,78,15300,2147757312,2147424713,2148013604,2147870025,2147641270,2147051364,2148263213,2147199021,3552,4,13,5931
1378724429,5807,986.7899780273438000,50.0891685485839840,673.3087768554688000,4.1888332366943360,53.7016296386718750,52,122,86,80,79,15290,2147757686,2147425856,2148014390,2147869842,2147639689,2147057188,2148264960,2147196909,3518,4,13,38640
1378728029,5808,987.0399780273438000,50.6087608337402340,674.2095947265625000,4.1590390205383300,53.6367301940918000,53,98,85,77,78,15275,2147756242,2147425225,2148015680,2147873188,2147640640,2147054198,2148259931,2147200493,3083,4,13,30597
1378731629,5807,986.2399902343750000,50.5945396423339840,674.7683715820312000,4.1405491828918460,53.6484298706054700,52,95,85,78,79,15271,2147754898,2147421878,2148013613,2147873444,2147641892,2147056484,2148267145,2147198089,3509,4,13,14130
1378735229,5810,982.6699829101562000,50.7785301208496100,676.3142700195312000,4.0893859863281250,53.6406898498535160,52,100,83,79,79,15270,2147754816,2147423488,2148012315,2147872804,2147636562,2147052726,2148264073,2147199899,3541,4,13,62205
1378738829,5810,980.2800292968750000,51.3149299621582000,677.0435791015625000,4.0652389526367190,53.5824813842773440,51,100,88,79,80,15270,2147753435,2147421878,2148013440,2147875200,2147641837,2147048292,2148264155,2147197540,788,4,13,9202
1378742429,5809,984.7399902343750000,51.2488212585449200,676.7459716796875000,4.0750942230224610,53.5856895446777340,53,99,84,78,78,15274,2147757101,2147428516,2148010752,2147871268,2147640950,2147055131,2148268288,2147196827,3574,4,13,2983
1378746029,5809,994.6099853515625000,51.2665405273437500,676.6522216796875000,4.0781989097595215,53.5829811096191400,52,99,83,78,78,15252,2147756233,2147422674,2148014070,2147871707,2147642889,2147053897,2148260827,2147198061,3085,4,13,39612
1378749629,5809,991.2800292968750000,50.8872108459472660,675.6665039062500000,4.1108279228210450,53.6192703247070300,52,102,81,78,79,15260,2147755318,2147424877,2148011099,2147873344,2147639259,2147056850,2148263771,2147197229,368,4,13,5062
1378753229,5810,1000.5999755859375000,50.4817199707031250,673.9171142578125000,4.1687150001525880,53.6517906188964840,52,98,84,77,79,15259,2147758628,2147422747,2148012608,2147872749,2147641728,2147056630,2148260553,2147198299,3191,4,13,56871
1378756829,5806,1007.2899780273438000,49.6816406250000000,672.4979858398438000,4.2156429290771480,53.7442398071289060,52,101,84,80,79,15255,2147756598,2147422308,2148011126,2147873014,2147640438,2147055222,2148263149,2147199661,664,4,13,52714
1378760429,5809,1008.5599975585938000,48.9438514709472660,672.6403198242188000,4.2109408378601070,53.8492317199707000,52,98,84,79,79,15255,2147754971,2147421440,2148013010,2147873572,2147639405,2147052434,2148260662,2147202578,3595,3,13,14797
1378764029,5811,1005.4600219726562000,48.7504501342773440,671.8018798828125000,4.2386569976806640,53.8691215515136700,52,100,84,80,78,15253,2147757302,2147421412,2148011529,2147873344,2147640950,2147057728,2148267190,2147202825,450,4,13,51256
1378767629,5809,993.3599853515625000,49.6229095458984400,673.6071166992188000,4.1789679527282715,53.7670707702636700,52,99,86,78,79,15254,2147754669,2147425801,2148011154,2147870445,2147639771,2147054043,2148265645,2147198500,3289,4,13,474
1378771229,5808,993.3900146484375000,49.9819297790527340,675.6680297851562000,4.1107788085937500,53.7443885803222660,52,96,85,79,79,15255,2147755666,2147424566,2148011794,2147873216,2147638985,2147054930,2148260708,2147199396,122,4,13,14490
1378774829,5812,989.6599731445312000,50.3216400146484400,675.9805297851562000,4.1004371643066410,53.6991195678710940,52,99,86,78,80,15251,2147755904,2147422628,2148012854,2147873801,2147636480,2147056923,2148266934,2147194294,449,4,13,19994
1378778429,5808,988.1199951171875000,50.5316390991210940,676.4970092773438000,4.0833377838134770,53.6765213012695300,52,98,81,79,80,15254,2147751579,2147421540,2148011483,2147872201,2147640265,2147062610,2148264466,2147199259,537,4,13,20144
1378782029,5807,983.5599975585938000,50.7824211120605500,677.7341918945312000,4.0423679351806640,53.6581993103027340,52,101,86,78,79,15251,2147756452,2147424310,2148010944,2147875666,2147640914,2147059062,2148266505,2147195666,153,4,13,977
1378785629,5808,989.0599975585938000,51.6770591735839840,677.9541015625000000,4.0350837707519530,53.5447311401367200,52,98,84,78,78,15253,2147756425,2147423259,2148013184,2147874377,2147640896,2147054866,2148264704,2147198436,3415,4,13,33160
1378789229,5806,997.2500000000000000,50.7861213684082000,676.5541992187500000,4.0814437866210940,53.6442794799804700,52,98,82,78,80,15254,2147754413,2147425115,2148011282,2147874541,2147639853,2147051766,2148263478,2147196736,299,4,13,56049
1378792829,5811,994.1900024414062000,50.3690681457519500,675.9763183593750000,4.1005759239196780,53.6938285827636700,52,96,84,78,79,15250,2147756434,2147423990,2148011666,2147872685,2147639049,2147059053,2148267200,2147199808,3510,4,13,60449
1378796429,5809,1002.3699951171875000,50.5765419006347660,675.4337158203125000,4.1185340881347660,53.6609115600585940,52,97,83,79,78,15250,2147752118,2147425883,2148013376,2147872950,2147638052,2147056969,2148261522,2147197421,3151,4,13,14674
1378800029,5811,1014.2100219726562000,49.8904495239257800,673.1771850585938000,4.1931838989257810,53.7253913879394500,53,100,86,79,80,15249,2147753097,2147423606,2148012306,2147873289,2147641773,2147054582,2148262006,2147204681,2888,4,13,42285
1378803629,5808,1010.1599731445312000,48.8832702636718750,672.2376098632812000,4.2242531776428220,53.8532409667968750,52,95,85,78,80,15249,2147753837,2147424850,2148012096,2147871881,2147639625,2147052379,2148260589,2147199332,3591,4,13,8893
1378807229,5810,1001.3099975585938000,49.2743682861328100,673.2711791992188000,4.1900768280029300,53.8104705810546900,52,99,83,78,79,15248,2147753051,2147423360,2148011465,2147874770,2147637741,2147061513,2148258057,2147195730,2844,4,13,22039
1378810829,5808,992.4400024414062000,49.7863998413085940,674.1461791992188000,4.1611371040344240,53.7518081665039060,53,100,85,79,79,15248,2147756891,2147423881,2148009865,2147874176,2147639634,2147055021,2148263707,2147200411,2992,4,13,19886
1378814429,5810,990.7899780273438000,50.3228187561035160,676.2955932617188000,4.0900039672851560,53.7078208923339840,53,98,85,78,79,15247,2147751762,2147424228,2148012416,2147873197,2147640164,2147054692,2148265627,2147198180,50,4,13,31874
1378818029,5811,988.9699707031250000,50.0925598144531250,676.6447753906250000,4.0784440040588380,53.7428092956543000,53,98,86,79,79,15245,2147759049,2147423808,2148009600,2147877065,2147639277,2147060397,2148262372,2147200493,246,4,13,59928
1378821629,5810,990.1900024414062000,50.8379211425781250,677.1746826171875000,4.0608978271484375,53.6461410522460940,52,99,84,77,80,15247,2147755346,2147423780,2148008886,2147875638,2147640265,2147055204,2148267090,2147200704,55,4,13,27573
1378825229,5811,989.0100097656250000,50.7412796020507800,677.1853027343750000,4.0605468750000000,53.6585388183593750,52,98,84,80,79,15246,2147754880,2147424228,2148010944,2147873106,2147640192,2147054866,2148262537,2147202020,8,4,13,20027
1378828829,5808,990.8499755859375000,50.8354110717773440,677.8502197265625000,4.0385270118713380,53.6572990417480500,52,96,83,77,79,15246,2147758473,2147428214,2148010724,2147869842,2147641600,2147055058,2148263862,2147200475,211,4,13,16106
1378832429,5809,996.2000122070312000,51.0802307128906250,676.8643188476562000,4.0711750984191895,53.6080589294433600,53,98,90,78,79,15246,2147756379,2147421851,2148012416,2147870884,2147641216,2147049984,2148263131,2147201197,3260,4,13,58313
1378836029,5810,997.6500244140625000,50.1002311706543000,676.6638793945312000,4.0778121948242190,53.7371902465820300,52,99,85,79,78,15247,2147758811,2147425938,2148013101,2147873947,2147639286,2147055780,2148262336,2147196982,80,4,13,32583
1378839629,5806,1000.7399902343750000,50.4816284179687500,675.9829711914062000,4.1003508567810060,53.6827888488769500,53,98,88,77,79,15241,2147756379,2147428169,2148011830,2147875017,2147639972,2147052461,2148259456,2147199744,3494,4,13,1416
1378842955,5810,1010.8300170898438000,50.2333297729492200,674.3076782226562000,4.1557898521423340,53.6919517517089840,52,97,83,80,79,15295,2147756717,2147427026,2148010505,2147872429,2147640283,2147058038,2148267136,2147199625,3061,4,13,59556
